Tracking 23610 objects as of 19-Sep-2021
HD Live streaming from Space Station
objects crossing your sky now

STARLINK-2562

Track STARLINK-2562 now!
10-day predictions
STARLINK-2562 is classified as:


NORAD ID: 48288
Int'l Code: 2021-036N
Perigee: 553.1 km
Apogee: 555.6 km
Inclination: 53.1 °
Period: 95.6 minutes
Semi major axis: 6925 km
RCS: Unknown
Launch date: April 29, 2021
Source: United States (US)
Launch site: AIR FORCE EASTERN TEST RANGE (AFETR)
aabbcc
Your satellite tracking list
Your tracking list is empty




NASA's NSSDC Master Catalog

Two Line Element Set (TLE):
1 48288U 21036N   21262.00001157 -.00030729  00000-0 -20526-2 0  9999
2 48288  53.0537 211.0349 0001808  76.9744  22.2838 15.06405215  3578
Source of the keplerian elements: AFSPC